TITAN 3C TRANSTAGE DEB, 38695

Orbit data source: Space-Track

TITAN 3C TRANSTAGE DEB, 38695 is space debris in GEO originally from a launch on Thu, 26 Sep 1968 UTC launched from the Air Force Eastern Test Range (AFETR). Debris objects in space refer to the collection of defunct objects orbiting the Earth. Examples of debris include non-operational satellites, rocket bodies, and fragments generated from explosions, collisions, or faulty payload assembly.

Not visible in the next 10 days
Identifier
38695, 1968-081V
Orbit
GEO
Country
Flag of USUS
Related business
Manufacturer
Unknown
Mission
Spacecraft
Bus & Motor
Unknown
Mass
Unknown
Launch date (UTC)
1968-09-26 (57 years ago)
Launch vehicle
Unknown
Launch site
Air Force Eastern Test Range (AFETR)
Object type
Payload
Rocket body
Debris
Shape & HBR
Unknown shape, 1.1 m
Radar Cross Section
Small (<0.1 m²)

Expand to show TLE details & history
Last TLE update: 1 day ago

TLE from 1 day ago
0 TITAN 3C TRANSTAGE DEB
1 38695U 68081V   25291.90833900 -.00000270  00000-0  00000-0 0  9995
2 38695   1.8523  17.4289 0419122 272.1278  50.0886  0.99394119 60942
Epoch: 2025-10-18T21:48Z
TLE epoch observation values (Epoch: 2025-10-18T21:48:00.489Z)
Latitude
-1.01724°
Longitude
-11.21057°
Altitude
34,944.077 km
Speed
3.146 km/s
True Right ascension
22h 53m 41s
True Declination
-1° 00' 58"
Sunlit
Object was in daylight at epoch
Visualization orbit readout
Latitude
Unknown
Longitude
Unknown
Altitude
Unknown
Speed
Unknown
Apparent Right ascension
Unknown
Apparent Declination
Unknown
Sunlit
N/A
Visualization observer readout
Local Sidereal Time
22:53:12
Azimuth
Unknown
Elevation
Unknown
Doppler factor
Unknown
Orbital elements
Apogee altitude
37,813.16 km
Perigee altitude
34,257.862 km
Semi-major axis
42,413.648 km
Eccentricity
0.04191
Inclination
1.8523°
RAAN
17.4289°
Arg. of periapsis
272.1278°
True anomaly
53.89765°
Mean anomaly
50.0886°
Eccentric anomaly
51.98042°
Mean motion
0.24848 °/min
Orbital period
1,448.83 mins
BSTAR
0
Loading maneuver chart data...
Computing Atmospheric mass density...

Documentation

Showing up to 5 results
|